Regional Weather Roundup
Issued by NWS New Orleans/Baton Rouge, LA

Home | Current Version | Previous Version | Graphics & Text | Print | Product List | Glossary On
Versions: 1 2 3 4 5 6 7 8 9 10 11 12 13 14 15 16 17 18 19 20 21 22 23 24 25 26 27 28 29 30 31 32 33 34 35 36 37 38 39 40 41 42 43 44 45 46 47 48 49 50
036
ASUS44 KLIX 310505
RWRLIX
NEW ORLEANS REGIONAL WEATHER ROUNDUP
NATIONAL WEATHER SERVICE NEW ORLEANS LA
1200 AM CDT THU JUL 31 2014

NOTE: "FAIR" INDICATES FEW OR NO CLOUDS BELOW 12,000 FEET WITH NO
      SIGNIFICANT WEATHER AND/OR OBSTRUCTIONS TO VISIBILITY.
      SKY/WX - SKY CONDITION AND SIGNIFICANT WEATHER.
      TMP - AIR TEMPERATURE.     DP    - DEWPOINT TEMPERATURE.
      RH  - RELATIVE HUMIDITY.   PRES  - PRESSURE.
      HI  - HEAT INDEX.          WCI   - WIND CHILL INDEX.

*  THESE STATIONS ARE NOT NWS OR FAA STATIONS AND ARE NOT UNDER
   NWS QUALITY CONTROL.

LAZ038-040-048-061>063-065>067-069-310600-
SOUTHEAST LOUISIANA

CITY           SKY/WX    TMP DP  RH WIND       PRES   REMARKS
N.O. AUDUBON     N/A     78  61  55 MISG        N/A
N.O. INTL ARPT PTCLDY    79  60  52 E5        30.02S
N.O. LAKEFRONT CLEAR     82  61  48 NE10      30.03S
N.O. DOWNTOWN*   N/A     81  59  47 NE5       30.03S
SLIDELL        CLEAR     69  65  86 N3        30.02S
BATON ROUGE    CLEAR     72  64  76 NE5       30.03S
BOOTHVILLE     CLEAR     77  69  76 SE3       30.02F
BELLE CHASSE   CLEAR     69  65  86 CALM      30.02S
BOGALUSA*        N/A     69  64  86 CALM      30.05S
GALLIANO*      NOT AVBL
NEW ROADS*       N/A     70  67  88 NE3       30.03S
GONZALES*        N/A     69  69 100 CALM      30.02F
HAMMOND*       CLEAR     70  63  78 CALM      30.05S
HOUMA*         CLEAR     70  65  83 CALM      30.03R
PORT FOURCHON* CLEAR     81  66  61 E5        30.04S

$$

MSZ070-080>082-310600-
SOUTHERN MISSISSIPPI

CITY           SKY/WX    TMP DP  RH WIND       PRES   REMARKS
MCCOMB         CLEAR     68  62  81 CALM      30.05S
GULFPORT       CLEAR     75  61  61 CALM      30.01F
BILOXI         CLEAR     72  62  69 NE3       30.02F
PASCAGOULA     CLEAR     65  63  93 CALM      30.02F

$$

COASTAL OBSERVATIONS
LAKE AND NEARSHORE STATIONS

STATION/POSITION TIME  TEMP    WIND        PRES    WAVE
                       AIR SEA DIR/SP/G            HT/PER
                 (UTC) (F)     (DEG/KT/KT) (MB)    (FT/S)
PASCAGOULA       0500   76      30/  6/  9 1016.0
WAVELAND YACHT   0500   78      70/  9/ 11 1015.9
GRAND ISLE       0500   81 87  100/  3/  4 1017.3
SOUTHWEST PASS   0500   81 85   70/  6/  8 1017.0
NEW CANAL        0500   83 84   60/ 11/ 13 1017.0
SHELL BEACH      0500   80 82   70/  2/  3 1016.4

OFFSHORE STATIONS

STATION/POSITION TIME  TEMP    WIND        PRES    WAVE
                       AIR SEA DIR/SP/G            HT/PER
                 (UTC) (F)     (DEG/KT/KT) (MB)    (FT/S)
64 S DAUPHIN ISL 0443   81 85   40/  6/ 10 1016.6

$$




USA.gov is the U.S. government's official web portal to all federal, state and local government web resources and services.